Year,Month,Day,Hour,Minute,Value (Times are PST for temperature in C)
2006,11,22,00,00,4.70
2006,11,22,00,01,4.70
2006,11,22,00,02,4.70
2006,11,22,00,03,4.70
2006,11,22,00,04,4.70
2006,11,22,00,05,4.70
2006,11,22,00,06,4.70
2006,11,22,00,07,4.70
2006,11,22,00,08,4.70
2006,11,22,00,09,4.70
2006,11,22,00,10,4.70
2006,11,22,00,11,4.70
2006,11,22,00,12,4.70
2006,11,22,00,13,4.70
2006,11,22,00,14,4.70
2006,11,22,00,15,4.60
2006,11,22,00,16,4.60
2006,11,22,00,17,4.60
2006,11,22,00,18,4.60
2006,11,22,00,19,4.60
2006,11,22,00,20,4.60
2006,11,22,00,21,4.60
2006,11,22,00,22,4.70
2006,11,22,00,23,4.70
2006,11,22,00,24,4.70
2006,11,22,00,25,4.70
2006,11,22,00,26,4.70
2006,11,22,00,27,4.70
2006,11,22,00,28,4.70
2006,11,22,00,29,4.70
2006,11,22,00,30,4.70
2006,11,22,00,31,4.70
2006,11,22,00,32,4.70
2006,11,22,00,33,4.70
2006,11,22,00,34,4.70
2006,11,22,00,35,4.70
2006,11,22,00,36,4.70
2006,11,22,00,37,4.70
2006,11,22,00,38,4.70
2006,11,22,00,39,4.70
2006,11,22,00,40,4.70
2006,11,22,00,41,4.70
2006,11,22,00,42,4.70
2006,11,22,00,43,4.70
2006,11,22,00,44,4.70
2006,11,22,00,45,4.70
2006,11,22,00,46,4.70
2006,11,22,00,47,4.70
2006,11,22,00,48,4.70
2006,11,22,00,49,4.70
2006,11,22,00,50,4.70
2006,11,22,00,51,4.70
2006,11,22,00,52,4.70
2006,11,22,00,53,4.70
2006,11,22,00,54,4.70
2006,11,22,00,55,4.70
2006,11,22,00,56,4.70
2006,11,22,00,57,4.70
2006,11,22,00,58,4.70
2006,11,22,00,59,4.70
2006,11,22,01,00,4.70
2006,11,22,01,01,4.70
2006,11,22,01,02,4.70
2006,11,22,01,03,4.70
2006,11,22,01,04,4.70
2006,11,22,01,05,4.70
2006,11,22,01,06,4.70
2006,11,22,01,07,4.70
2006,11,22,01,08,4.70
2006,11,22,01,09,4.70
2006,11,22,01,10,4.70
2006,11,22,01,11,4.70
2006,11,22,01,12,4.70
2006,11,22,01,13,4.70
2006,11,22,01,14,4.70
2006,11,22,01,15,4.70
2006,11,22,01,16,4.70
2006,11,22,01,17,4.70
2006,11,22,01,18,4.70
2006,11,22,01,19,4.70
2006,11,22,01,20,4.70
2006,11,22,01,21,4.70
2006,11,22,01,22,4.60
2006,11,22,01,23,4.60
2006,11,22,01,24,4.60
2006,11,22,01,25,4.60
2006,11,22,01,26,4.60
2006,11,22,01,27,4.60
2006,11,22,01,28,4.60
2006,11,22,01,29,4.60
2006,11,22,01,30,4.60
2006,11,22,01,31,4.60
2006,11,22,01,32,4.60
2006,11,22,01,33,4.60
2006,11,22,01,34,4.60
2006,11,22,01,35,4.60
2006,11,22,01,36,4.60
2006,11,22,01,37,4.60
2006,11,22,01,38,4.60
2006,11,22,01,39,4.60
2006,11,22,01,40,4.60
2006,11,22,01,41,4.60
2006,11,22,01,42,4.60
2006,11,22,01,43,4.60
2006,11,22,01,44,4.60
2006,11,22,01,45,4.60
2006,11,22,01,46,4.60
2006,11,22,01,47,4.60
2006,11,22,01,48,4.60
2006,11,22,01,49,4.60
2006,11,22,01,50,4.60
2006,11,22,01,51,4.50
2006,11,22,01,52,4.50
2006,11,22,01,53,4.50
2006,11,22,01,54,4.50
2006,11,22,01,55,4.50
2006,11,22,01,56,4.50
2006,11,22,01,57,4.50
2006,11,22,01,58,4.50
2006,11,22,01,59,4.50
2006,11,22,02,00,4.50
2006,11,22,02,01,4.50
2006,11,22,02,02,4.50
2006,11,22,02,03,4.50
2006,11,22,02,04,4.50
2006,11,22,02,05,4.50
2006,11,22,02,06,4.50
2006,11,22,02,07,4.50
2006,11,22,02,08,4.50
2006,11,22,02,09,4.50
2006,11,22,02,10,4.50
2006,11,22,02,11,4.50
2006,11,22,02,12,4.50
2006,11,22,02,13,4.50
2006,11,22,02,14,4.50
2006,11,22,02,15,4.50
2006,11,22,02,16,4.50
2006,11,22,02,17,4.40
2006,11,22,02,18,4.40
2006,11,22,02,19,4.40
2006,11,22,02,20,4.30
2006,11,22,02,21,4.30
2006,11,22,02,22,4.30
2006,11,22,02,23,4.20
2006,11,22,02,24,4.20
2006,11,22,02,25,4.20
2006,11,22,02,26,4.20
2006,11,22,02,27,4.20
2006,11,22,02,28,4.20
2006,11,22,02,29,4.20
2006,11,22,02,30,4.20
2006,11,22,02,31,4.20
2006,11,22,02,32,4.20
2006,11,22,02,33,4.10
2006,11,22,02,34,4.10
2006,11,22,02,35,4.10
2006,11,22,02,36,4.00
2006,11,22,02,37,4.00
2006,11,22,02,38,4.00
2006,11,22,02,39,4.00
2006,11,22,02,40,4.00
2006,11,22,02,41,4.10
2006,11,22,02,42,4.10
2006,11,22,02,43,4.00
2006,11,22,02,44,4.00
2006,11,22,02,45,4.00
2006,11,22,02,46,4.10
2006,11,22,02,47,4.10
2006,11,22,02,48,4.10
2006,11,22,02,49,4.10
2006,11,22,02,50,4.10
2006,11,22,02,51,4.10
2006,11,22,02,52,4.00
2006,11,22,02,53,4.00
2006,11,22,02,54,4.00
2006,11,22,02,55,3.90
2006,11,22,02,56,3.90
2006,11,22,02,57,3.90
2006,11,22,02,58,3.90
2006,11,22,02,59,3.90
2006,11,22,03,00,3.90
2006,11,22,03,01,3.80
2006,11,22,03,02,3.80
2006,11,22,03,03,3.80
2006,11,22,03,04,3.80
2006,11,22,03,05,3.80
2006,11,22,03,06,3.80
2006,11,22,03,07,3.80
2006,11,22,03,08,3.80
2006,11,22,03,09,3.80
2006,11,22,03,10,3.80
2006,11,22,03,11,3.80
2006,11,22,03,12,3.80
2006,11,22,03,13,3.80
2006,11,22,03,14,3.90
2006,11,22,03,15,3.90
2006,11,22,03,16,3.90
2006,11,22,03,17,3.90
2006,11,22,03,18,3.90
2006,11,22,03,19,3.80
2006,11,22,03,20,3.80
2006,11,22,03,21,3.80
2006,11,22,03,22,3.80
2006,11,22,03,23,3.80
2006,11,22,03,24,3.80
2006,11,22,03,25,3.80
2006,11,22,03,26,3.80
2006,11,22,03,27,3.80
2006,11,22,03,28,3.80
2006,11,22,03,29,3.80
2006,11,22,03,30,3.80
2006,11,22,03,31,3.80
2006,11,22,03,32,3.80
2006,11,22,03,33,3.80
2006,11,22,03,34,3.80
2006,11,22,03,35,3.80
2006,11,22,03,36,3.80
2006,11,22,03,37,3.80
2006,11,22,03,38,3.80
2006,11,22,03,39,3.80
2006,11,22,03,40,3.80
2006,11,22,03,41,3.80
2006,11,22,03,42,3.80
2006,11,22,03,43,3.80
2006,11,22,03,44,3.80
2006,11,22,03,45,3.80
2006,11,22,03,46,3.80
2006,11,22,03,47,3.80
2006,11,22,03,48,3.80
2006,11,22,03,49,3.80
2006,11,22,03,50,3.80
2006,11,22,03,51,3.80
2006,11,22,03,52,3.80
2006,11,22,03,53,3.80
2006,11,22,03,54,3.70
2006,11,22,03,55,3.70
2006,11,22,03,56,3.70
2006,11,22,03,57,3.70
2006,11,22,03,58,3.70
2006,11,22,03,59,3.70
2006,11,22,04,00,3.70
2006,11,22,04,01,3.70
2006,11,22,04,02,3.70
2006,11,22,04,03,3.70
2006,11,22,04,04,3.70
2006,11,22,04,05,3.70
2006,11,22,04,06,3.60
2006,11,22,04,07,3.60
2006,11,22,04,08,3.60
2006,11,22,04,09,3.60
2006,11,22,04,10,3.60
2006,11,22,04,11,3.60
2006,11,22,04,12,3.60
2006,11,22,04,13,3.60
2006,11,22,04,14,3.50
2006,11,22,04,15,3.50
2006,11,22,04,16,3.50
2006,11,22,04,17,3.50
2006,11,22,04,18,3.50
2006,11,22,04,19,3.50
2006,11,22,04,20,3.50
2006,11,22,04,21,3.50
2006,11,22,04,22,3.50
2006,11,22,04,23,3.50
2006,11,22,04,24,3.50
2006,11,22,04,25,3.50
2006,11,22,04,26,3.50
2006,11,22,04,27,3.50
2006,11,22,04,28,3.50
2006,11,22,04,29,3.50
2006,11,22,04,30,3.40
2006,11,22,04,31,3.40
2006,11,22,04,32,3.40
2006,11,22,04,33,3.40
2006,11,22,04,34,3.40
2006,11,22,04,35,3.40
2006,11,22,04,36,3.40
2006,11,22,04,37,3.30
2006,11,22,04,38,3.30
2006,11,22,04,39,3.30
2006,11,22,04,40,3.30
2006,11,22,04,41,3.30
2006,11,22,04,42,3.30
2006,11,22,04,43,3.30
2006,11,22,04,44,3.30
2006,11,22,04,45,3.30
2006,11,22,04,46,3.30
2006,11,22,04,47,3.30
2006,11,22,04,48,3.30
2006,11,22,04,49,3.30
2006,11,22,04,50,3.30
2006,11,22,04,51,3.30
2006,11,22,04,52,3.30
2006,11,22,04,53,3.30
2006,11,22,04,54,3.30
2006,11,22,04,55,3.30
2006,11,22,04,56,3.30
2006,11,22,04,57,3.30
2006,11,22,04,58,3.30
2006,11,22,04,59,3.30
2006,11,22,05,00,3.30
2006,11,22,05,01,3.30
2006,11,22,05,02,3.30
2006,11,22,05,03,3.30
2006,11,22,05,04,3.30
2006,11,22,05,05,3.30
2006,11,22,05,06,3.30
2006,11,22,05,07,3.30
2006,11,22,05,08,3.30
2006,11,22,05,09,3.30
2006,11,22,05,10,3.30
2006,11,22,05,11,3.30
2006,11,22,05,12,3.30
2006,11,22,05,13,3.30
2006,11,22,05,14,3.30
2006,11,22,05,15,3.30
2006,11,22,05,16,3.40
2006,11,22,05,17,3.40
2006,11,22,05,18,3.40
2006,11,22,05,19,3.40
2006,11,22,05,20,3.40
2006,11,22,05,21,3.40
2006,11,22,05,22,3.40
2006,11,22,05,23,3.40
2006,11,22,05,24,3.40
2006,11,22,05,25,3.40
2006,11,22,05,26,3.40
2006,11,22,05,27,3.50
2006,11,22,05,28,3.50
2006,11,22,05,29,3.50
2006,11,22,05,30,3.50
2006,11,22,05,31,3.50
2006,11,22,05,32,3.50
2006,11,22,05,33,3.50
2006,11,22,05,34,3.50
2006,11,22,05,35,3.50
2006,11,22,05,36,3.50
2006,11,22,05,37,3.50
2006,11,22,05,38,3.50
2006,11,22,05,39,3.50
2006,11,22,05,40,3.50
2006,11,22,05,41,3.50
2006,11,22,05,42,3.50
2006,11,22,05,43,3.50
2006,11,22,05,44,3.50
2006,11,22,05,45,3.50
2006,11,22,05,46,3.50
2006,11,22,05,47,3.50
2006,11,22,05,48,3.50
2006,11,22,05,49,3.50
2006,11,22,05,50,3.50
2006,11,22,05,51,3.50
2006,11,22,05,52,3.50
2006,11,22,05,53,3.60
2006,11,22,05,54,3.60
2006,11,22,05,55,3.60
2006,11,22,05,56,3.60
2006,11,22,05,57,3.60
2006,11,22,05,58,3.60
2006,11,22,05,59,3.60
2006,11,22,06,00,3.60
2006,11,22,06,01,3.60
2006,11,22,06,02,3.60
2006,11,22,06,03,3.60
2006,11,22,06,04,3.60
2006,11,22,06,05,3.60
2006,11,22,06,06,3.60
2006,11,22,06,07,3.60
2006,11,22,06,08,3.60
2006,11,22,06,09,3.70
2006,11,22,06,10,3.70
2006,11,22,06,11,3.70
2006,11,22,06,12,3.70
2006,11,22,06,13,3.70
2006,11,22,06,14,3.70
2006,11,22,06,15,3.70
2006,11,22,06,16,3.70
2006,11,22,06,17,3.70
2006,11,22,06,18,3.80
2006,11,22,06,19,3.80
2006,11,22,06,20,3.80
2006,11,22,06,21,3.80
2006,11,22,06,22,3.80
2006,11,22,06,23,3.80
2006,11,22,06,24,3.80
2006,11,22,06,25,3.80
2006,11,22,06,26,3.80
2006,11,22,06,27,3.80
2006,11,22,06,28,3.80
2006,11,22,06,29,3.80
2006,11,22,06,30,3.80
2006,11,22,06,31,3.80
2006,11,22,06,32,3.80
2006,11,22,06,33,3.80
2006,11,22,06,34,3.80
2006,11,22,06,35,3.80
2006,11,22,06,36,3.80
2006,11,22,06,37,3.80
2006,11,22,06,38,3.80
2006,11,22,06,39,3.80
2006,11,22,06,40,3.80
2006,11,22,06,41,3.80
2006,11,22,06,42,3.80
2006,11,22,06,43,3.80
2006,11,22,06,44,3.80
2006,11,22,06,45,3.80
2006,11,22,06,46,3.80
2006,11,22,06,47,3.80
2006,11,22,06,48,3.80
2006,11,22,06,49,3.80
2006,11,22,06,50,3.80
2006,11,22,06,51,3.80
2006,11,22,06,52,3.80
2006,11,22,06,53,3.80
2006,11,22,06,54,3.80
2006,11,22,06,55,3.80
2006,11,22,06,56,3.80
2006,11,22,06,57,3.80
2006,11,22,06,58,3.80
2006,11,22,06,59,3.80
2006,11,22,07,00,3.80
2006,11,22,07,01,3.80
2006,11,22,07,02,3.90
2006,11,22,07,03,3.90
2006,11,22,07,04,3.90
2006,11,22,07,05,3.90
2006,11,22,07,06,3.90
2006,11,22,07,07,3.90
2006,11,22,07,08,3.90
2006,11,22,07,09,3.90
2006,11,22,07,10,3.90
2006,11,22,07,11,3.90
2006,11,22,07,12,3.90
2006,11,22,07,13,3.90
2006,11,22,07,14,3.90
2006,11,22,07,15,3.90
2006,11,22,07,16,3.90
2006,11,22,07,17,3.90
2006,11,22,07,18,3.90
2006,11,22,07,19,3.90
2006,11,22,07,20,4.00
2006,11,22,07,21,4.00
2006,11,22,07,22,4.00
2006,11,22,07,23,4.00
2006,11,22,07,24,4.10
2006,11,22,07,25,4.10
2006,11,22,07,26,4.10
2006,11,22,07,27,4.10
2006,11,22,07,28,4.00
2006,11,22,07,29,4.00
2006,11,22,07,30,4.00
2006,11,22,07,31,4.00
2006,11,22,07,32,4.00
2006,11,22,07,33,3.90
2006,11,22,07,34,3.90
2006,11,22,07,35,3.90
2006,11,22,07,36,3.80
2006,11,22,07,37,3.80
2006,11,22,07,38,3.80
2006,11,22,07,39,3.80
2006,11,22,07,40,3.80
2006,11,22,07,41,3.80
2006,11,22,07,42,3.80
2006,11,22,07,43,3.80
2006,11,22,07,44,3.80
2006,11,22,07,45,3.80
2006,11,22,07,46,3.80
2006,11,22,07,47,3.80
2006,11,22,07,48,3.80
2006,11,22,07,49,3.80
2006,11,22,07,50,3.80
2006,11,22,07,51,3.80
2006,11,22,07,52,3.80
2006,11,22,07,53,3.80
2006,11,22,07,54,3.80
2006,11,22,07,55,3.80
2006,11,22,07,56,3.80
2006,11,22,07,57,3.80
2006,11,22,07,58,3.80
2006,11,22,07,59,3.80
2006,11,22,08,00,3.80
2006,11,22,08,01,3.80
2006,11,22,08,02,3.80
2006,11,22,08,03,3.90
2006,11,22,08,04,3.90
2006,11,22,08,05,4.00
2006,11,22,08,06,4.00
2006,11,22,08,07,4.10
2006,11,22,08,08,4.10
2006,11,22,08,09,4.10
2006,11,22,08,10,4.10
2006,11,22,08,11,4.20
2006,11,22,08,12,4.20
2006,11,22,08,13,4.20
2006,11,22,08,14,4.20
2006,11,22,08,15,4.20
2006,11,22,08,16,4.20
2006,11,22,08,17,4.20
2006,11,22,08,18,4.20
2006,11,22,08,19,4.20
2006,11,22,08,20,4.20
2006,11,22,08,21,4.30
2006,11,22,08,22,4.30
2006,11,22,08,23,4.40
2006,11,22,08,24,4.40
2006,11,22,08,25,4.50
2006,11,22,08,26,4.50
2006,11,22,08,27,4.50
2006,11,22,08,28,4.60
2006,11,22,08,29,4.60
2006,11,22,08,30,4.60
2006,11,22,08,31,4.60
2006,11,22,08,32,4.70
2006,11,22,08,33,4.70
2006,11,22,08,34,4.80
2006,11,22,08,35,4.80
2006,11,22,08,36,4.90
2006,11,22,08,37,4.90
2006,11,22,08,38,4.90
2006,11,22,08,39,4.90
2006,11,22,08,40,4.90
2006,11,22,08,41,4.90
2006,11,22,08,42,4.90
2006,11,22,08,43,4.90
2006,11,22,08,44,4.90
2006,11,22,08,45,4.90
2006,11,22,08,46,4.90
2006,11,22,08,47,4.90
2006,11,22,08,48,4.90
2006,11,22,08,49,4.90
2006,11,22,08,50,4.90
2006,11,22,08,51,5.00
2006,11,22,08,52,5.10
2006,11,22,08,53,5.10
2006,11,22,08,54,5.10
2006,11,22,08,55,5.10
2006,11,22,08,56,5.10
2006,11,22,08,57,5.10
2006,11,22,08,58,5.10
2006,11,22,08,59,5.10
2006,11,22,09,00,5.10
2006,11,22,09,01,5.10
2006,11,22,09,02,5.10
2006,11,22,09,03,5.10
2006,11,22,09,04,5.10
2006,11,22,09,05,5.10
2006,11,22,09,06,5.10
2006,11,22,09,07,5.10
2006,11,22,09,08,5.10
2006,11,22,09,09,5.10
2006,11,22,09,10,5.10
2006,11,22,09,11,5.20
2006,11,22,09,12,5.20
2006,11,22,09,13,5.20
2006,11,22,09,14,5.20
2006,11,22,09,15,5.20
2006,11,22,09,16,5.20
2006,11,22,09,17,5.30
2006,11,22,09,18,5.30
2006,11,22,09,19,5.30
2006,11,22,09,20,5.30
2006,11,22,09,21,5.30
2006,11,22,09,22,5.30
2006,11,22,09,23,5.30
2006,11,22,09,24,5.30
2006,11,22,09,25,5.40
2006,11,22,09,26,5.40
2006,11,22,09,27,5.40
2006,11,22,09,28,5.40
2006,11,22,09,29,5.50
2006,11,22,09,30,5.50
2006,11,22,09,31,5.50
2006,11,22,09,32,5.50
2006,11,22,09,33,5.50
2006,11,22,09,34,5.50
2006,11,22,09,35,5.50
2006,11,22,09,36,5.50
2006,11,22,09,37,5.50
2006,11,22,09,38,5.50
2006,11,22,09,39,5.50
2006,11,22,09,40,5.50
2006,11,22,09,41,5.50
2006,11,22,09,42,5.60
2006,11,22,09,43,5.60
2006,11,22,09,44,5.60
2006,11,22,09,45,5.60
2006,11,22,09,46,5.70
2006,11,22,09,47,5.70
2006,11,22,09,48,5.70
2006,11,22,09,49,5.70
2006,11,22,09,50,5.70
2006,11,22,09,51,5.70
2006,11,22,09,52,5.70
2006,11,22,09,53,5.80
2006,11,22,09,54,5.80
2006,11,22,09,55,5.90
2006,11,22,09,56,5.90
2006,11,22,09,57,6.00
2006,11,22,09,58,6.10
2006,11,22,09,59,6.20
2006,11,22,10,00,6.20
2006,11,22,10,01,6.20
2006,11,22,10,02,6.20
2006,11,22,10,03,6.20
2006,11,22,10,04,6.30
2006,11,22,10,05,6.30
2006,11,22,10,06,6.30
2006,11,22,10,07,6.40
2006,11,22,10,08,6.40
2006,11,22,10,09,6.40
2006,11,22,10,10,6.40
2006,11,22,10,11,6.40
2006,11,22,10,12,6.40
2006,11,22,10,13,6.40
2006,11,22,10,14,6.40
2006,11,22,10,15,6.40
2006,11,22,10,16,6.40
2006,11,22,10,17,6.50
2006,11,22,10,18,6.60
2006,11,22,10,19,6.60
2006,11,22,10,20,6.60
2006,11,22,10,21,6.60
2006,11,22,10,22,6.60
2006,11,22,10,23,6.60
2006,11,22,10,24,6.70
2006,11,22,10,25,6.70
2006,11,22,10,26,6.70
2006,11,22,10,27,6.70
2006,11,22,10,28,6.70
2006,11,22,10,29,6.70
2006,11,22,10,30,6.70
2006,11,22,10,31,6.80
2006,11,22,10,32,6.80
2006,11,22,10,33,6.80
2006,11,22,10,34,6.80
2006,11,22,10,35,6.80
2006,11,22,10,36,6.80
2006,11,22,10,37,6.80
2006,11,22,10,38,6.80
2006,11,22,10,39,6.80
2006,11,22,10,40,6.80
2006,11,22,10,41,6.80
2006,11,22,10,42,6.80
2006,11,22,10,43,6.80
2006,11,22,10,44,6.80
2006,11,22,10,45,6.80
2006,11,22,10,46,6.80
2006,11,22,10,47,6.80
2006,11,22,10,48,6.80
2006,11,22,10,49,6.80
2006,11,22,10,50,6.80
2006,11,22,10,51,6.80
2006,11,22,10,52,6.80
2006,11,22,10,53,6.80
2006,11,22,10,54,6.80
2006,11,22,10,55,6.70
2006,11,22,10,56,6.70
2006,11,22,10,57,6.70
2006,11,22,10,58,6.70
2006,11,22,10,59,6.70
2006,11,22,11,00,6.70
2006,11,22,11,01,6.70
2006,11,22,11,02,6.60
2006,11,22,11,03,6.60
2006,11,22,11,04,6.60
2006,11,22,11,05,6.60
2006,11,22,11,06,6.60
2006,11,22,11,07,6.60
2006,11,22,11,08,6.60
2006,11,22,11,09,6.70
2006,11,22,11,10,6.70
2006,11,22,11,11,6.70
2006,11,22,11,12,6.70
2006,11,22,11,13,6.70
2006,11,22,11,14,6.70
2006,11,22,11,15,6.70
2006,11,22,11,16,6.70
2006,11,22,11,17,6.60
2006,11,22,11,18,6.60
2006,11,22,11,19,6.60
2006,11,22,11,20,6.60
2006,11,22,11,21,6.60
2006,11,22,11,22,6.60
2006,11,22,11,23,6.60
2006,11,22,11,24,6.60
2006,11,22,11,25,6.60
2006,11,22,11,26,6.60
2006,11,22,11,27,6.60
2006,11,22,11,28,6.60
2006,11,22,11,29,6.60
2006,11,22,11,30,6.60
2006,11,22,11,31,6.60
2006,11,22,11,32,6.60
2006,11,22,11,33,6.60
2006,11,22,11,34,6.60
2006,11,22,11,35,6.60
2006,11,22,11,36,6.60
2006,11,22,11,37,6.60
2006,11,22,11,38,6.60
2006,11,22,11,39,6.60
2006,11,22,11,40,6.60
2006,11,22,11,41,6.60
2006,11,22,11,42,6.60
2006,11,22,11,43,6.60
2006,11,22,11,44,6.60
2006,11,22,11,45,6.60
2006,11,22,11,46,6.60
2006,11,22,11,47,6.60
2006,11,22,11,48,6.60
2006,11,22,11,49,6.60
2006,11,22,11,50,6.60
2006,11,22,11,51,6.60
2006,11,22,11,52,6.60
2006,11,22,11,53,6.60
2006,11,22,11,54,6.60
2006,11,22,11,55,6.60
2006,11,22,11,56,6.60
2006,11,22,11,57,6.60
2006,11,22,11,58,6.60
2006,11,22,11,59,6.60
2006,11,22,12,00,6.60
2006,11,22,12,01,6.60
2006,11,22,12,02,6.60
2006,11,22,12,03,6.60
2006,11,22,12,04,6.60
2006,11,22,12,05,6.60
2006,11,22,12,06,6.60
2006,11,22,12,07,6.60
2006,11,22,12,08,6.60
2006,11,22,12,09,6.60
2006,11,22,12,10,6.60
2006,11,22,12,11,6.60
2006,11,22,12,12,6.60
2006,11,22,12,13,6.60
2006,11,22,12,14,6.60
2006,11,22,12,15,6.60
2006,11,22,12,16,6.60
2006,11,22,12,17,6.60
2006,11,22,12,18,6.60
2006,11,22,12,19,6.60
2006,11,22,12,20,6.60
2006,11,22,12,21,6.60
2006,11,22,12,22,6.60
2006,11,22,12,23,6.60
2006,11,22,12,24,6.60
2006,11,22,12,25,6.60
2006,11,22,12,26,6.60
2006,11,22,12,27,6.60
2006,11,22,12,28,6.60
2006,11,22,12,29,6.60
2006,11,22,12,30,6.60
2006,11,22,12,31,6.60
2006,11,22,12,32,6.60
2006,11,22,12,33,6.60
2006,11,22,12,34,6.60
2006,11,22,12,35,6.60
2006,11,22,12,36,6.60
2006,11,22,12,37,6.60
2006,11,22,12,38,6.60
2006,11,22,12,39,6.60
2006,11,22,12,40,6.50
2006,11,22,12,41,6.40
2006,11,22,12,42,6.40
2006,11,22,12,43,6.40
2006,11,22,12,44,6.40
2006,11,22,12,45,6.40
2006,11,22,12,46,6.40
2006,11,22,12,47,6.40
2006,11,22,12,48,6.40
2006,11,22,12,49,6.40
2006,11,22,12,50,6.40
2006,11,22,12,51,6.40
2006,11,22,12,52,6.40
2006,11,22,12,53,6.40
2006,11,22,12,54,6.40
2006,11,22,12,55,6.40
2006,11,22,12,56,6.40
2006,11,22,12,57,6.50
2006,11,22,12,58,6.60
2006,11,22,12,59,6.60
2006,11,22,13,00,6.60
2006,11,22,13,01,6.60
2006,11,22,13,02,6.60
2006,11,22,13,03,6.60
2006,11,22,13,04,6.60
2006,11,22,13,05,6.60
2006,11,22,13,06,6.60
2006,11,22,13,07,6.60
2006,11,22,13,08,6.60
2006,11,22,13,09,6.60
2006,11,22,13,10,6.60
2006,11,22,13,11,6.60
2006,11,22,13,12,6.60
2006,11,22,13,13,6.60
2006,11,22,13,14,6.60
2006,11,22,13,15,6.60
2006,11,22,13,16,6.60
2006,11,22,13,17,6.60
2006,11,22,13,18,6.60
2006,11,22,13,19,6.60
2006,11,22,13,20,6.60
2006,11,22,13,21,6.60
2006,11,22,13,22,6.70
2006,11,22,13,23,6.70
2006,11,22,13,24,6.70
2006,11,22,13,25,6.70
2006,11,22,13,26,6.70
2006,11,22,13,27,6.70
2006,11,22,13,28,6.60
2006,11,22,13,29,6.60
2006,11,22,13,30,6.60
2006,11,22,13,31,6.60
2006,11,22,13,32,6.70
2006,11,22,13,33,6.60
2006,11,22,13,34,6.60
2006,11,22,13,35,6.60
2006,11,22,13,36,6.60
2006,11,22,13,37,6.60
2006,11,22,13,38,6.70
2006,11,22,13,39,6.70
2006,11,22,13,40,6.70
2006,11,22,13,41,6.70
2006,11,22,13,42,6.70
2006,11,22,13,43,6.70
2006,11,22,13,44,6.80
2006,11,22,13,45,6.80
2006,11,22,13,46,6.80
2006,11,22,13,47,6.80
2006,11,22,13,48,6.80
2006,11,22,13,49,6.80
2006,11,22,13,50,6.80
2006,11,22,13,51,6.80
2006,11,22,13,52,6.80
2006,11,22,13,53,6.80
2006,11,22,13,54,6.80
2006,11,22,13,55,6.80
2006,11,22,13,56,6.80
2006,11,22,13,57,6.80
2006,11,22,13,58,6.90
2006,11,22,13,59,6.90
2006,11,22,14,00,6.90
2006,11,22,14,01,6.90
2006,11,22,14,02,6.90
2006,11,22,14,03,6.90
2006,11,22,14,04,6.90
2006,11,22,14,05,6.90
2006,11,22,14,06,6.90
2006,11,22,14,07,6.80
2006,11,22,14,08,6.80
2006,11,22,14,09,6.80
2006,11,22,14,10,6.90
2006,11,22,14,11,6.80
2006,11,22,14,12,6.90
2006,11,22,14,13,6.90
2006,11,22,14,14,6.90
2006,11,22,14,15,6.90
2006,11,22,14,16,6.90
2006,11,22,14,17,6.90
2006,11,22,14,18,6.90
2006,11,22,14,19,6.90
2006,11,22,14,20,7.00
2006,11,22,14,21,7.00
2006,11,22,14,22,6.90
2006,11,22,14,23,6.90
2006,11,22,14,24,6.90
2006,11,22,14,25,6.90
2006,11,22,14,26,6.90
2006,11,22,14,27,6.90
2006,11,22,14,28,6.90
2006,11,22,14,29,6.80
2006,11,22,14,30,6.80
2006,11,22,14,31,6.90
2006,11,22,14,32,6.90
2006,11,22,14,33,6.90
2006,11,22,14,34,6.90
2006,11,22,14,35,6.90
2006,11,22,14,36,6.90
2006,11,22,14,37,6.90
2006,11,22,14,38,6.90
2006,11,22,14,39,6.90
2006,11,22,14,40,6.90
2006,11,22,14,41,6.80
2006,11,22,14,42,6.80
2006,11,22,14,43,6.80
2006,11,22,14,44,6.80
2006,11,22,14,45,6.80
2006,11,22,14,46,6.80
2006,11,22,14,47,6.80
2006,11,22,14,48,6.80
2006,11,22,14,49,6.80
2006,11,22,14,50,6.70
2006,11,22,14,51,6.70
2006,11,22,14,52,6.70
2006,11,22,14,53,6.70
2006,11,22,14,54,6.70
2006,11,22,14,55,6.70
2006,11,22,14,56,6.60
2006,11,22,14,57,6.60
2006,11,22,14,58,6.60
2006,11,22,14,59,6.60
2006,11,22,15,00,6.60
2006,11,22,15,01,6.60
2006,11,22,15,02,6.60
2006,11,22,15,03,6.60
2006,11,22,15,04,6.60
2006,11,22,15,05,6.60
2006,11,22,15,06,6.60
2006,11,22,15,07,6.60
2006,11,22,15,08,6.60
2006,11,22,15,09,6.60
2006,11,22,15,10,6.60
2006,11,22,15,11,6.60
2006,11,22,15,12,6.50
2006,11,22,15,13,6.40
2006,11,22,15,14,6.40
2006,11,22,15,15,6.40
2006,11,22,15,16,6.40
2006,11,22,15,17,6.40
2006,11,22,15,18,6.40
2006,11,22,15,19,6.40
2006,11,22,15,20,6.40
2006,11,22,15,21,6.40
2006,11,22,15,22,6.40
2006,11,22,15,23,6.40
2006,11,22,15,24,6.40
2006,11,22,15,25,6.40
2006,11,22,15,26,6.40
2006,11,22,15,27,6.30
2006,11,22,15,28,6.40
2006,11,22,15,29,6.40
2006,11,22,15,30,6.40
2006,11,22,15,31,6.40
2006,11,22,15,32,6.40
2006,11,22,15,33,6.40
2006,11,22,15,34,6.40
2006,11,22,15,35,6.40
2006,11,22,15,36,6.40
2006,11,22,15,37,6.40
2006,11,22,15,38,6.40
2006,11,22,15,39,6.40
2006,11,22,15,40,6.40
2006,11,22,15,41,6.40
2006,11,22,15,42,6.40
2006,11,22,15,43,6.40
2006,11,22,15,44,6.40
2006,11,22,15,45,6.40
2006,11,22,15,46,6.40
2006,11,22,15,47,6.40
2006,11,22,15,48,6.50
2006,11,22,15,49,6.60
2006,11,22,15,50,6.60
2006,11,22,15,51,6.60
2006,11,22,15,52,6.60
2006,11,22,15,53,6.60
2006,11,22,15,54,6.60
2006,11,22,15,55,6.60
2006,11,22,15,56,6.60
2006,11,22,15,57,6.60
2006,11,22,15,58,6.60
2006,11,22,15,59,6.60
2006,11,22,16,00,6.60
2006,11,22,16,01,6.60
2006,11,22,16,02,6.60
2006,11,22,16,03,6.60
2006,11,22,16,04,6.60
2006,11,22,16,05,6.60
2006,11,22,16,06,6.60
2006,11,22,16,07,6.70
2006,11,22,16,08,6.70
2006,11,22,16,09,6.70
2006,11,22,16,10,6.70
2006,11,22,16,11,6.70
2006,11,22,16,12,6.70
2006,11,22,16,13,6.70
2006,11,22,16,14,6.70
2006,11,22,16,15,6.80
2006,11,22,16,16,6.80
2006,11,22,16,17,6.80
2006,11,22,16,18,6.80
2006,11,22,16,19,6.80
2006,11,22,16,20,6.80
2006,11,22,16,21,6.80
2006,11,22,16,22,6.80
2006,11,22,16,23,6.80
2006,11,22,16,24,6.80
2006,11,22,16,25,6.80
2006,11,22,16,26,6.80
2006,11,22,16,27,6.80
2006,11,22,16,28,6.80
2006,11,22,16,29,6.80
2006,11,22,16,30,6.80
2006,11,22,16,31,6.80
2006,11,22,16,32,6.80
2006,11,22,16,33,6.80
2006,11,22,16,34,6.80
2006,11,22,16,35,6.80
2006,11,22,16,36,6.80
2006,11,22,16,37,6.80
2006,11,22,16,38,6.80
2006,11,22,16,39,6.80
2006,11,22,16,40,6.80
2006,11,22,16,41,6.80
2006,11,22,16,42,6.80
2006,11,22,16,43,6.80
2006,11,22,16,44,6.80
2006,11,22,16,45,6.80
2006,11,22,16,46,6.80
2006,11,22,16,47,6.80
2006,11,22,16,48,6.80
2006,11,22,16,49,6.80
2006,11,22,16,50,6.80
2006,11,22,16,51,6.80
2006,11,22,16,52,6.80
2006,11,22,16,53,6.80
2006,11,22,16,54,6.80
2006,11,22,16,55,6.80
2006,11,22,16,56,6.80
2006,11,22,16,57,6.80
2006,11,22,16,58,6.80
2006,11,22,16,59,6.80
2006,11,22,17,00,6.80
2006,11,22,17,01,6.80
2006,11,22,17,02,6.80
2006,11,22,17,03,6.80
2006,11,22,17,04,6.80
2006,11,22,17,05,6.80
2006,11,22,17,06,6.80
2006,11,22,17,07,6.80
2006,11,22,17,08,6.80
2006,11,22,17,09,6.80
2006,11,22,17,10,6.80
2006,11,22,17,11,6.80
2006,11,22,17,12,6.80
2006,11,22,17,13,6.80
2006,11,22,17,14,6.80
2006,11,22,17,15,6.80
2006,11,22,17,16,6.80
2006,11,22,17,17,6.70
2006,11,22,17,18,6.70
2006,11,22,17,19,6.70
2006,11,22,17,20,6.70
2006,11,22,17,21,6.60
2006,11,22,17,22,6.60
2006,11,22,17,23,6.60
2006,11,22,17,24,6.60
2006,11,22,17,25,6.60
2006,11,22,17,26,6.60
2006,11,22,17,27,6.60
2006,11,22,17,28,6.50
2006,11,22,17,29,6.40
2006,11,22,17,30,6.40
2006,11,22,17,31,6.40
2006,11,22,17,32,6.40
2006,11,22,17,33,6.40
2006,11,22,17,34,6.40
2006,11,22,17,35,6.40
2006,11,22,17,36,6.40
2006,11,22,17,37,6.30
2006,11,22,17,38,6.30
2006,11,22,17,39,6.30
2006,11,22,17,40,6.30
2006,11,22,17,41,6.30
2006,11,22,17,42,6.30
2006,11,22,17,43,6.20
2006,11,22,17,44,6.20
2006,11,22,17,45,6.20
2006,11,22,17,46,6.20
2006,11,22,17,47,6.20
2006,11,22,17,48,6.20
2006,11,22,17,49,6.20
2006,11,22,17,50,6.20
2006,11,22,17,51,6.20
2006,11,22,17,52,6.20
2006,11,22,17,53,6.10
2006,11,22,17,54,6.10
2006,11,22,17,55,6.10
2006,11,22,17,56,6.10
2006,11,22,17,57,6.10
2006,11,22,17,58,6.10
2006,11,22,17,59,6.00
2006,11,22,18,00,6.00
2006,11,22,18,01,6.00
2006,11,22,18,02,6.00
2006,11,22,18,03,6.00
2006,11,22,18,04,6.00
2006,11,22,18,05,6.00
2006,11,22,18,06,6.00